Location: Kawakawa
(35.3830°S, 174.0670°E)
Time: 02:24:38
(UTC+12:00)

Cosmos 1110 Rocket - Pass Details

Date: 15 August 2020
Orbit: 752 x 781 km, 74.0° (Epoch: 20 September)

Event Time Altitude Azimuth Distance (km) Brightness Sun altitude
Rises 19:01:15 0° 356° (N) 3,226 7.4 -14.6°
Reaches altitude 10° 19:03:39 10° 0° (N) 2,303 6.6 -15.1°
Maximum altitude 19:08:44 55° 77° (ENE) 925 4.1 -16.1°
Drops below altitude 10° 19:13:51 10° 153° (SSE) 2,315 6.2 -17.2°
Enters shadow 19:14:23 - 154° (SSE) 2,517 6.4 -17.3°
